Weather History for Campeche, Mexico

Change the Weather History Date:

Wednesday, April 30, 2014

  Actual Average Record
Temperature  
Mean Temperature 88 °F -  
Max Temperature 98 °F 91 °F 104 °F (2005)
Min Temperature 75 °F 73 °F 69 °F (2008)
Cooling Degree Days 22    
Growing Degree Days 38 (Base 50)    
Moisture  
Dew Point 75 °F    
Average Humidity 75    
Maximum Humidity 94    
Minimum Humidity 50    
Precipitation  
Precipitation 1.54 in - - ()
Sea Level Pressure  
Sea Level Pressure 29.80 in    
Wind  
Wind Speed 8 mph ()    
Max Wind Speed 23 mph    
Max Gust Speed 34 mph    
Visibility 5.5 miles    
Events Rain , Thunderstorm    
Averages and records for this station are not official NWS values.
T = Trace of Precipitation, MM = Missing Value Source: Averaged Metar Reports

Daily Weather History Graph

Daily Weather History Graph

Search for Another Location

Airport:

Trip Planner

Search our weather history database for the weather conditions in past years. The results will help you decide how hot, cold, wet, or windy it might be!

Date:

Astronomy

Apr. 30, 2014 Rise Set
Actual Time 6:33 AM CDT 7:25 PM CDT
Civil Twilight 6:10 AM CDT 7:48 PM CDT
Nautical Twilight 5:43 AM CDT 8:15 PM CDT
Astronomical Twilight 5:16 AM CDT 8:42 PM CDT
Moon 7:39 AM CDT (4/30) 8:57 PM CDT (4/30)
Length of Visible Light 13h 37m
Length of Day
12h 51m
New Moon, 2% of the Moon is Illuminated
Apr 30
New Moon
May 6
First Quarter
May 14
Full
May 21
Last Quarter
May 28
New

Hourly Weather History & Observations

Time (CDT) Temp. Heat Index Dew Point Humidity Pressure Visibility Wind Dir Wind Speed Gust Speed Precip Events Conditions
12:50 AM 85 °F - 76 °F 69% 29.78 in 4 mi East 8.9 mph - -  
3:50 AM 81 °F - 76 °F 80% 29.76 in 4 mi ESE 6.7 mph - -  
5:20 AM 80.6 °F 86.2 °F 75.2 °F 84% 29.76 in 7.0 mi East 9.2 mph - N/A   Clear
5:48 AM 80.6 °F 86.2 °F 75.2 °F 84% 29.76 in 7.0 mi East 9.2 mph - N/A   Clear
6:49 AM 80.6 °F 86.2 °F 75.2 °F 84% 29.78 in 7.0 mi East 9.2 mph - N/A   Clear
6:50 AM 80 °F - 77 °F 89% 29.79 in 4 mi East 2.2 mph - -   Overcast
7:43 AM 82.4 °F 90.9 °F 77.0 °F 84% 29.80 in 6.0 mi East 6.9 mph - N/A   Overcast
8:51 AM 84.2 °F 94.1 °F 77.0 °F 79% 29.82 in 6.0 mi ESE 16.1 mph - N/A   Mostly Cloudy
9:50 AM 90 °F - 81 °F 69% 29.83 in 6 mi ESE 4.5 mph - -   Clear
9:52 AM 86.0 °F 99.3 °F 78.8 °F 79% 29.82 in 6.0 mi East 11.5 mph - N/A   Mostly Cloudy
10:41 AM 89.6 °F 102.2 °F 77.0 °F 66% 29.82 in 6.0 mi ESE 11.5 mph - N/A   Mostly Cloudy
11:46 AM 93.2 °F 105.0 °F 75.2 °F 56% 29.82 in 6.0 mi East 5.8 mph - N/A   Mostly Cloudy
12:47 PM 95.0 °F 107.4 °F 75.2 °F 53% 29.81 in 6.0 mi East 9.2 mph - N/A   Scattered Clouds
12:50 PM 98 °F - 82 °F 51% 29.82 in 5 mi ESE 2.2 mph - -   Scattered Clouds
1:41 PM 96.8 °F 109.6 °F 75.2 °F 50% 29.79 in 6.0 mi North 11.5 mph - N/A   Scattered Clouds
2:46 PM 95.0 °F 107.4 °F 75.2 °F 53% 29.75 in 5.0 mi North 11.5 mph - N/A Rain , Thunderstorm Thunderstorms and Rain
2:57 PM 86.0 °F 95.1 °F 75.2 °F 70% 29.76 in 0.5 mi West 23.0 mph 34.5 mph N/A Rain , Thunderstorm Heavy Thunderstorms and Rain
3:27 PM 78.8 °F - 73.4 °F 83% 29.78 in 3.0 mi West 23.0 mph 34.5 mph N/A Rain , Thunderstorm Thunderstorms and Rain
3:41 PM 78.8 °F - 71.6 °F 78% 29.76 in 5.0 mi West 23.0 mph 34.5 mph N/A Rain Light Rain
4:41 PM 80.6 °F 84.6 °F 71.6 °F 74% 29.76 in 6.0 mi SSE 5.8 mph - N/A   Overcast
5:45 PM 78.8 °F - 69.8 °F 74% 29.76 in 6.0 mi NNE 6.9 mph - N/A   Overcast
6:41 PM 80.6 °F 84.6 °F 71.6 °F 74% 29.76 in 6.0 mi South 8.1 mph - N/A   Overcast
7:00 PM 80 °F - 75 °F 81% 29.78 in 6 mi Calm Calm - -   Partly Cloudy
7:42 PM 80.6 °F 85.4 °F 73.4 °F 79% 29.78 in 6.0 mi Calm Calm - N/A   Overcast
8:41 PM 82.4 °F 88.2 °F 73.4 °F 74% 29.81 in 6.0 mi NNE 5.8 mph - N/A   Mostly Cloudy
9:42 PM 80.6 °F 85.4 °F 73.4 °F 79% 29.86 in 6.0 mi NNE 11.5 mph 23.0 mph N/A   Overcast
9:50 PM 79 °F - 74 °F 81% 29.89 in 4 mi NE 6.7 mph - -   Overcast
10:43 PM 77.0 °F - 73.4 °F 89% 29.88 in 6.0 mi East 11.5 mph 23.0 mph N/A   Overcast
11:28 PM 77.0 °F - 73.4 °F 89% 29.91 in 6.0 mi East 11.5 mph 23.0 mph N/A Rain Rain
11:43 PM 75.2 °F - 73.4 °F 94% 29.90 in 6.0 mi East 23.0 mph 34.5 mph N/A   Mostly Cloudy